Location: Aytr�
(46.1357°N, 1.1145°W)
Time: 22:57:30
(UTC+00:00)

Nauka - Pass Details

Date: 22 September 2021
Orbit: 417 x 423 km, 51.6° (Epoch: 16 October)

Event Time Altitude Azimuth Distance (km) Brightness Sun altitude
Rises 20:24:44 0° 283° (WNW) 2,364 ? -24.6°
Reaches altitude 10° 20:26:59 10° 295° (WNW) 1,502 ? -25.0°
Enters shadow 20:29:16 27° 332° (NNW) 839 ? -25.3°
